Date String (YYYY-MM-DD hh:mm:ss) UTC,Instrument flags,absolute air pressure of the measurement (hPa),sample flow rate (lpm),inlet stack bypass flow (lpm),air temperature of the measurement (°C),ambient temperature measured by the external sensor (°C),aerosol sample conditioner tube jacket temperature (°C),OPC LED temperature (°C),internal box temperature (°C),relative humidity of the measurement (%),span deviation,mass concentration of particles derived from Lorenz-Mie calculation of OPC scattering (μg/m³),mass concentration of particles derived from Lorenz-Mie calculation of OPC scattering (μg/m³),mass concentration of particles derived from Lorenz-Mie calculation of OPC scattering (μg/m³)
DateTimeUTC,F1_M11,P_M11,Q1_M11,Q2_M11,T1_M11,T2_M11,T3_M11,T4_M11,T5_M11,U1_M11,ZSPAN_M11,X0_M11,X2_M11,X1_M11
2024-02-26 19:00:00,SystemResetWarning,0818.9,5.00,000.00,022.2,021.5,000.0,030.2,023.8,12.0,0000.0,0005.90,0001.58,0000.69
2024-02-26 19:01:00,SystemResetWarning,0819.0,5.00,000.00,022.2,021.6,000.0,030.2,023.8,11.4,0000.0,0006.43,0001.61,0000.70
2024-02-26 19:02:00,SystemResetWarning,0818.9,5.01,000.00,022.2,021.6,000.0,030.2,023.9,11.7,0000.0,0006.82,0001.63,0000.70
2024-02-26 19:03:00,SystemResetWarning,0818.8,5.00,000.00,022.2,021.6,000.0,030.2,023.9,11.5,0000.0,0007.01,0001.58,0000.71
2024-02-26 19:04:00,SystemResetWarning,0818.7,5.01,000.00,022.2,021.6,000.0,030.3,023.9,10.6,0000.0,0007.09,0001.57,0000.71
2024-02-26 19:05:00,SystemResetWarning,0818.7,5.01,000.00,022.2,021.6,000.0,030.3,023.9,10.8,0000.0,0007.19,0001.73,0000.73
2024-02-26 19:06:00,SystemResetWarning,0818.6,5.01,000.00,022.2,021.6,000.0,030.3,023.9,11.0,0000.0,0006.08,0001.76,0000.73
2024-02-26 19:07:00,SystemResetWarning,0818.8,5.00,000.00,022.3,021.6,000.0,030.3,024.0,10.9,0000.0,0006.38,0001.81,0000.74
2024-02-26 19:08:00,SystemResetWarning,0818.8,4.99,000.00,022.3,021.6,000.0,030.3,023.9,11.5,0000.0,0006.29,0001.83,0000.74
2024-02-26 19:09:00,SystemResetWarning,0818.7,4.99,000.00,022.3,021.6,000.0,030.3,023.9,11.4,0000.0,0006.46,0001.89,0000.74
2024-02-26 19:10:00,SystemResetWarning,0818.7,5.00,000.00,022.3,021.7,000.0,030.3,024.0,11.3,0000.0,0006.54,0001.92,0000.74
2024-02-26 19:11:00,SystemResetWarning,0818.6,5.00,000.00,022.3,021.7,000.0,030.3,024.0,10.9,0000.0,0006.03,0001.91,0000.74
2024-02-26 19:12:00,SystemResetWarning,0818.7,5.02,000.00,022.3,021.7,000.0,030.3,024.0,10.6,0000.0,0005.50,0001.95,0000.73
2024-02-26 19:13:00,SystemResetWarning,0818.6,5.00,000.00,022.3,021.7,000.0,030.4,024.0,10.7,0000.0,0005.70,0001.97,0000.72
2024-02-26 19:14:00,SystemResetWarning,0818.6,4.99,000.00,022.4,021.8,000.0,030.4,024.0,10.8,0000.0,0005.63,0001.95,0000.72
2024-02-26 19:15:00,SystemResetWarning,0818.6,5.00,000.00,022.4,021.8,000.0,030.4,024.1,11.0,0000.0,0005.52,0001.90,0000.71
2024-02-26 19:16:00,SystemResetWarning,0818.5,4.99,000.00,022.4,021.8,000.0,030.4,024.1,11.1,0000.0,0005.27,0001.79,0000.71
2024-02-26 19:17:00,SystemResetWarning,0818.5,5.00,000.00,022.4,021.8,000.0,030.4,024.1,10.8,0000.0,0005.25,0001.78,0000.73
2024-02-26 19:18:00,SystemResetWarning,0818.4,5.00,000.00,022.4,021.8,000.0,030.4,024.1,10.5,0000.0,0005.29,0001.80,0000.73
2024-02-26 19:19:00,SystemResetWarning,0818.4,5.01,000.00,022.4,021.8,000.0,030.4,024.1,10.5,0000.0,0005.46,0001.80,0000.74
2024-02-26 19:20:00,SystemResetWarning,0818.5,5.00,000.00,022.4,021.8,000.0,030.5,024.1,10.6,0000.0,0006.28,0001.82,0000.74
2024-02-26 19:21:00,SystemResetWarning,0818.5,4.99,000.00,022.5,021.9,000.0,030.5,024.1,10.5,0000.0,0006.76,0001.80,0000.73
2024-02-26 19:22:00,SystemResetWarning,0818.4,4.99,000.00,022.5,021.9,000.0,030.5,024.1,10.5,0000.0,0006.63,0001.78,0000.75
2024-02-26 19:23:00,SystemResetWarning,0818.5,5.01,000.00,022.5,021.9,000.0,030.5,024.2,10.1,0000.0,0006.61,0001.78,0000.75
2024-02-26 19:24:00,SystemResetWarning,0818.5,5.01,000.00,022.5,021.9,000.0,030.5,024.2,10.1,0000.0,0006.00,0001.76,0000.75
2024-02-26 19:25:00,SystemResetWarning,0818.4,5.00,000.00,022.5,021.9,000.0,030.5,024.2,10.4,0000.0,0005.52,0001.74,0000.77
2024-02-26 19:26:00,SystemResetWarning,0818.4,5.00,000.00,022.6,022.0,000.0,030.5,024.2,10.3,0000.0,0005.42,0001.79,0000.77
2024-02-26 19:27:00,SystemResetWarning,0818.3,5.00,000.00,022.6,022.0,000.0,030.6,024.3,10.3,0000.0,0005.76,0001.77,0000.76
2024-02-26 19:28:00,SystemResetWarning,0818.3,5.00,000.00,022.6,022.0,000.0,030.6,024.3,10.5,0000.0,0005.96,0001.74,0000.76
2024-02-26 19:29:00,SystemResetWarning,0818.3,4.99,000.00,022.6,022.0,000.0,030.6,024.3,09.8,0000.0,0005.72,0001.71,0000.75
2024-02-26 19:30:00,SystemResetWarning,0818.3,5.00,000.00,022.6,022.0,000.0,030.6,024.3,09.7,0000.0,0005.38,0001.66,0000.75
2024-02-26 19:31:00,SystemResetWarning,0818.2,5.00,000.00,022.6,022.1,000.0,030.6,024.3,09.5,0000.0,0004.48,0001.61,0000.76
2024-02-26 19:32:00,SystemResetWarning,0818.2,5.01,000.00,022.7,022.1,000.0,030.6,024.4,09.7,0000.0,0004.01,0001.66,0000.76
2024-02-26 19:33:00,SystemResetWarning,0818.3,5.01,000.00,022.7,022.1,000.0,030.7,024.4,09.7,0000.0,0003.92,0001.62,0000.75
2024-02-26 19:34:00,SystemResetWarning,0818.1,5.00,000.00,022.7,022.1,000.0,030.7,024.4,09.6,0000.0,0003.74,0001.56,0000.75
2024-02-26 19:35:00,SystemResetWarning,0818.1,5.00,000.00,022.7,022.1,000.0,030.7,024.4,09.5,0000.0,0003.91,0001.61,0000.76
2024-02-26 19:36:00,SystemResetWarning,0818.0,4.99,000.00,022.7,022.1,000.0,030.7,024.5,09.4,0000.0,0004.03,0001.69,0000.75
2024-02-26 19:37:00,SystemResetWarning,0818.2,5.00,000.00,022.7,022.2,000.0,030.7,024.5,10.0,0000.0,0004.02,0001.71,0000.76
2024-02-26 19:38:00,SystemResetWarning,0818.2,5.00,000.00,022.8,022.2,000.0,030.7,024.5,09.3,0000.0,0003.93,0001.79,0000.77
2024-02-26 19:39:00,SystemResetWarning,0818.3,5.00,000.00,022.8,022.2,000.0,030.8,024.5,13.2,0000.0,0004.05,0001.90,0000.77
2024-02-26 19:40:00,SystemResetWarning,0818.3,5.00,000.00,022.8,022.2,000.0,030.8,024.5,10.9,0000.0,0004.14,0001.92,0000.78
2024-02-26 19:41:00,SystemResetWarning,0818.1,5.01,000.00,022.8,022.2,000.0,030.8,024.5,09.4,0000.0,0004.71,0002.03,0000.79
2024-02-26 19:42:00,SystemResetWarning,0818.0,5.00,000.00,022.8,022.2,000.0,030.8,024.5,08.9,0000.0,0005.93,0002.14,0000.80
2024-02-26 19:43:00,SystemResetWarning,0818.0,5.00,000.00,022.8,022.2,000.0,030.8,024.5,09.0,0000.0,0006.34,0002.13,0000.80
2024-02-26 19:44:00,SystemResetWarning,0817.9,5.01,000.00,022.8,022.2,000.0,030.8,024.5,09.5,0000.0,0006.57,0002.18,0000.81
2024-02-26 19:45:00,SystemResetWarning,0818.0,5.00,000.00,022.8,022.2,000.0,030.8,024.5,12.1,0000.0,0007.31,0002.20,0000.82
2024-02-26 19:46:00,SystemResetWarning,0818.0,4.99,000.00,022.9,022.3,000.0,030.9,024.6,12.2,0000.0,0007.90,0002.23,0000.83
2024-02-26 19:47:00,SystemResetWarning,0818.1,4.99,000.00,022.9,022.3,000.0,030.9,024.6,11.4,0000.0,0008.16,0002.29,0000.83
2024-02-26 19:48:00,SystemResetWarning,0818.0,5.00,000.00,022.9,022.3,000.0,030.9,024.6,11.9,0000.0,0008.09,0002.24,0000.82
2024-02-26 19:49:00,SystemResetWarning,0817.8,5.00,000.00,022.9,022.3,000.0,030.9,024.6,10.8,0000.0,0008.00,0002.20,0000.81
2024-02-26 19:50:00,SystemResetWarning,0818.0,5.01,000.00,022.9,022.3,000.0,030.9,024.6,12.6,0000.0,0008.03,0002.11,0000.81
2024-02-26 19:51:00,SystemResetWarning,0818.1,5.01,000.00,022.9,022.3,000.0,030.9,024.6,14.8,0000.0,0008.59,0002.12,0000.80
2024-02-26 19:52:00,SystemResetWarning,0818.1,4.99,000.00,022.9,022.3,000.0,030.9,024.6,15.2,0000.0,0008.40,0002.04,0000.79
2024-02-26 19:53:00,SystemResetWarning,0818.0,4.98,000.00,023.0,022.3,000.0,031.0,024.6,15.2,0000.0,0007.88,0001.97,0000.77
2024-02-26 19:54:00,SystemResetWarning,0818.0,5.00,000.00,023.0,022.4,000.0,031.0,024.7,14.8,0000.0,0007.73,0002.02,0000.77
2024-02-26 19:55:00,SystemResetWarning,0817.9,5.00,000.00,023.0,022.4,000.0,031.0,024.7,14.8,0000.0,0007.61,0001.98,0000.76
2024-02-26 19:56:00,SystemResetWarning,0818.0,5.01,000.00,023.0,022.4,000.0,031.0,024.7,14.0,0000.0,0007.19,0002.00,0000.75
2024-02-26 19:57:00,SystemResetWarning,0817.9,4.99,000.00,023.0,022.4,000.0,031.0,024.7,13.8,0000.0,0006.16,0001.94,0000.74
2024-02-26 19:58:00,SystemResetWarning,0817.8,5.00,000.00,023.0,022.4,000.0,031.0,024.7,13.7,0000.0,0005.50,0001.81,0000.74
2024-02-26 19:59:00,SystemResetWarning,0817.9,4.99,000.00,023.0,022.4,000.0,031.0,024.7,12.8,0000.0,0005.54,0001.79,0000.75
